Theta_e
281 281 280 280 280 281 280 280 280 280 280 280 280 280 280 280 281 281 281 281 281 280 281 281 281 281 281 282 282 282 282 282 282 283 283 284 284 284 283 284 284 283
281 281 281 281 280 280 280 280 280 280 279 279 280 280 280 280 280 280 280 280 280 280 280 280 280 280 280 280 281 281 281 281 281 283 282 283 283 284 283 283 283 284
280 280 280 279 279 279 279 279 280 280 279 279 280 280 280 280 280 279 279 279 279 279 279 280 279 280 279 280 280 280 280 280 281 282 282 282 283 283 283 283 283 283
279 279 279 279 279 279 279 279 279 279 280 279 279 279 279 279 279 279 279 279 279 279 279 279 279 279 279 279 279 279 280 280 281 281 281 282 283 282 282 282 282 282
279 278 279 279 279 279 280 279 279 279 279 279 279 279 278 279 278 278 278 278 278 278 278 278 278 278 278 278 279 279 280 280 280 280 280 281 282 281 281 281 281 281
279 279 279 279 279 279 279 278 278 278 278 278 278 278 278 278 278 278 277 277 277 277 277 277 277 277 278 278 278 278 278 279 279 280 279 280 280 281 281 281 280 280
279 279 279 279 279 279 278 278 278 278 278 278 278 277 278 277 277 277 277 277 277 277 276 276 277 276 277 277 277 277 278 278 279 279 279 279 280 279 280 280 280 279
278 278 278 278 278 278 278 277 278 277 277 277 277 277 277 277 276 277 276 276 276 276 276 276 276 276 276 277 276 277 277 279 279 279 278 279 279 278 279 279 279 279
278 278 278 278 278 278 277 277 277 277 277 277 277 277 277 277 276 276 276 276 276 276 276 276 276 276 276 276 276 276 277 278 278 278 278 278 278 278 278 279 278 278
278 278 278 278 277 277 276 276 276 276 276 276 276 277 276 276 276 276 276 275 275 275 275 275 275 275 275 276 276 276 277 277 278 278 278 278 277 277 277 277 277 277
277 277 277 277 277 277 276 276 276 276 277 276 276 276 276 276 276 276 275 275 275 274 275 275 275 275 275 275 276 277 277 277 277 277 277 277 277 277 277 277 277 277
277 277 277 277 276 276 276 276 276 276 276 276 276 275 275 275 275 275 275 274 274 274 274 274 275 275 275 275 276 277 277 277 277 277 277 277 277 277 277 277 277 277
277 277 277 277 276 276 276 276 276 276 276 275 275 275 275 274 274 274 274 274 274 274 274 274 274 274 275 276 277 277 276 276 276 276 276 276 276 276 277 277 277 277
277 277 277 277 277 276 276 276 275 275 275 275 275 274 274 274 273 273 274 274 274 274 274 274 274 274 275 276 277 277 276 276 276 276 275 275 276 276 276 276 276 276
278 277 277 276 276 276 276 275 275 275 275 274 274 274 274 274 273 273 273 273 273 273 273 274 274 273 274 275 276 276 276 275 275 275 275 275 275 275 276 276 276 276
278 277 276 276 275 275 275 275 275 274 274 274 273 273 273 273 273 273 273 273 272 273 273 273 273 273 273 275 276 276 275 275 275 275 275 275 275 274 275 275 275 275
277 277 276 275 275 275 275 275 274 274 274 273 273 273 272 272 272 272 272 272 272 272 272 272 272 272 273 275 276 276 276 275 275 275 275 275 274 274 274 274 274 275
277 277 276 275 275 275 275 275 274 274 273 273 273 272 272 272 272 272 272 272 272 272 271 271 271 272 273 274 275 276 276 275 275 275 275 274 274 273 273 274 274 274
278 277 276 275 275 275 275 274 274 273 273 273 272 272 272 272 272 271 271 272 271 271 271 271 271 271 272 274 275 275 276 276 275 275 274 273 273 273 273 273 273 273
278 277 276 275 275 275 274 274 273 273 273 273 272 272 272 271 271 271 271 271 271 270 270 271 271 271 272 273 274 275 275 276 274 273 273 273 273 273 273 273 273 273
277 276 276 275 275 274 274 273 273 273 272 272 272 272 271 271 271 271 271 270 270 270 270 270 270 270 272 273 274 274 275 275 273 273 273 273 273 273 273 273 273 273
277 276 276 275 275 274 273 273 273 273 272 272 272 272 271 271 271 271 270 270 270 269 269 269 270 270 271 272 273 274 275 273 273 272 272 272 272 273 273 273 273 273
277 276 276 275 274 274 273 273 273 272 272 272 271 271 271 270 270 270 270 269 269 269 268 269 269 270 270 271 272 273 273 272 272 272 272 271 271 272 272 272 273 273
277 276 276 275 274 273 273 273 273 273 272 272 271 271 270 270 270 269 269 269 268 268 268 268 268 269 270 270 271 272 272 271 271 271 271 271 271 272 272 272 272 273
277 276 276 275 274 274 274 273 273 272 272 271 271 271 270 270 269 269 269 269 268 268 267 266 268 268 269 269 271 272 272 271 271 270 270 270 270 270 271 271 271 272
277 276 276 275 275 274 274 273 273 272 271 270 270 270 269 269 268 268 268 268 268 267 267 267 267 268 268 269 270 271 272 271 271 270 269 269 270 270 269 270 271 271
Wind_Speed
6 6 6 6 6 5 5 6 6 6 6 5 5 5 5 5 5 6 6 6 7 7 7 7 7 7 7 7 8 6 6 7 6 6 6 6 5 6 6 7 7 6
6 6 6 6 6 5 5 6 6 6 6 5 5 4 5 5 6 6 6 6 7 7 7 7 7 8 8 7 7 6 5 6 6 5 6 7 5 6 6 7 6 7
6 6 6 7 6 7 6 6 5 5 5 5 5 5 4 4 5 6 6 7 6 7 7 7 7 7 7 6 6 5 5 6 6 6 5 5 5 5 6 6 6 7
6 6 6 6 6 6 6 6 6 5 5 5 5 4 4 4 5 6 6 6 6 6 5 5 5 5 5 5 5 3 4 4 5 6 5 4 5 5 6 6 6 6
6 5 5 5 5 6 6 6 6 6 6 5 5 5 5 5 5 5 5 4 4 4 4 4 4 4 4 4 4 4 4 4 5 6 6 6 5 5 5 6 7 7
6 5 5 5 5 6 6 6 6 6 6 6 5 4 4 4 4 4 4 4 3 4 4 4 4 4 4 4 4 4 5 5 5 6 6 5 5 6 5 6 6 7
6 6 6 6 6 6 6 6 5 5 5 4 3 3 3 3 4 4 4 4 4 4 4 3 4 4 3 4 4 4 5 4 5 5 5 5 5 6 6 6 7 7
6 5 5 5 6 6 6 5 5 4 3 2 3 3 3 3 4 3 3 3 3 3 3 3 3 3 4 3 4 4 4 3 5 6 6 6 6 6 7 6 7 7
6 6 6 6 6 6 6 5 4 4 2 2 2 2 2 2 3 2 3 2 2 3 3 3 4 3 3 3 4 4 5 4 5 6 6 6 7 7 7 7 8 8
6 6 6 6 6 5 6 4 3 3 2 2 2 2 2 2 2 2 2 3 2 3 3 3 3 3 3 3 3 4 4 5 6 6 6 7 7 7 8 8 8 8
7 6 6 6 6 5 5 4 3 3 2 2 2 2 2 2 2 2 2 2 2 2 3 3 3 3 3 3 3 4 5 6 6 6 7 7 7 7 8 8 8 8
7 6 6 6 5 5 5 4 3 3 3 2 2 2 2 2 2 2 1 2 2 2 2 3 3 3 3 4 4 5 5 6 6 7 7 7 7 8 8 8 8 9
7 7 6 6 6 5 4 4 4 3 3 3 2 2 1 1 1 1 2 1 2 2 2 3 3 3 3 4 5 5 5 6 7 7 7 6 7 7 8 8 8 8
7 7 6 6 5 5 4 4 4 3 3 3 3 2 1 0 1 1 2 2 1 1 2 3 3 3 3 5 6 6 6 6 7 7 7 8 8 8 8 8 8 8
8 7 6 6 5 5 5 5 5 5 4 3 3 2 1 1 1 2 2 1 1 1 3 3 3 3 3 6 6 6 6 6 6 7 7 8 8 8 8 8 8 7
8 7 6 6 6 6 6 6 6 5 4 3 3 2 2 1 2 2 2 2 2 2 3 3 3 2 5 10 9 7 7 6 6 7 7 7 8 8 7 7 7 8
8 8 7 8 7 7 7 6 6 4 4 4 3 3 2 2 3 2 1 2 2 2 3 3 2 3 9 9 10 11 8 7 7 7 7 7 7 7 7 7 7 8
9 9 9 8 8 7 7 6 6 5 5 4 4 3 3 2 2 2 1 1 2 2 2 3 3 5 9 9 10 11 10 8 7 6 7 7 6 7 7 7 8 8
10 10 9 8 8 7 7 6 6 6 6 5 4 3 2 2 2 1 1 1 2 3 3 3 3 5 8 10 10 11 11 10 6 7 6 6 7 7 8 8 8 8
10 10 9 9 8 8 8 8 8 7 6 4 3 3 3 2 2 2 2 1 2 3 3 3 3 5 9 10 10 11 11 11 6 6 6 7 7 8 7 8 8 8
11 10 10 9 9 9 9 8 8 6 6 4 4 3 3 2 2 2 1 1 2 3 3 4 3 6 8 10 11 12 12 9 6 6 6 7 7 7 8 9 9 9
12 11 11 10 10 10 9 9 8 7 6 5 3 2 2 2 2 2 2 2 2 3 4 4 3 5 8 10 11 11 13 6 6 7 6 7 7 8 9 8 9 9
12 12 12 11 11 10 10 9 8 7 6 5 4 3 3 3 3 2 2 2 2 3 4 5 4 5 8 10 11 12 10 6 6 6 7 8 8 9 9 9 8 10
13 12 12 12 11 11 10 9 7 6 6 5 4 4 4 4 3 2 2 2 2 3 3 5 5 6 8 10 11 12 10 7 6 6 8 8 9 10 9 9 10 14
12 12 12 12 12 11 9 9 8 7 5 5 4 4 3 3 3 2 2 2 3 3 3 5 6 6 7 9 11 11 9 6 6 7 8 8 9 10 10 9 10 11
11 12 12 12 12 10 8 8 7 7 6 6 5 4 3 3 3 3 3 2 2 3 3 4 5 6 6 10 11 11 11 7 6 7 8 9 10 10 10 10 10 11
Wind_Direction
90 91 90 90 85 83 86 86 78 75 72 68 69 62 56 46 36 36 34 35 32 30 26 21 19 16 10 13 9 6 12 8 2 359 352 352 351 359 355 356 356 351
93 96 99 99 97 91 86 83 80 80 77 71 66 65 56 44 39 35 33 30 32 30 24 21 18 17 13 11 4 359 359 0 354 352 343 347 347 351 352 348 353 349
98 99 99 100 101 99 93 88 86 81 78 73 67 57 51 43 38 39 35 27 26 24 23 18 15 13 9 3 355 352 353 346 347 350 342 347 348 350 343 343 351 350
102 104 104 104 104 104 99 94 89 82 77 71 58 53 50 40 38 33 33 27 27 23 18 16 11 5 3 354 344 349 345 348 355 346 344 343 345 351 343 350 347 353
117 111 108 105 102 99 95 89 82 79 74 67 63 51 42 35 33 33 30 29 30 22 18 14 11 5 358 357 348 356 351 356 359 352 344 340 345 352 343 345 345 349
117 114 111 109 103 99 94 86 78 77 74 64 55 47 45 36 41 40 32 30 24 21 16 12 8 1 356 355 350 2 352 356 350 343 339 336 346 346 346 341 343 345
121 116 111 105 100 94 92 86 85 78 73 72 67 65 47 45 42 36 33 23 17 13 10 2 359 357 355 349 358 359 353 347 336 338 343 341 342 339 345 345 345 340
121 117 113 111 108 102 96 100 92 86 85 90 87 62 51 38 37 34 24 19 10 3 0 0 357 2 356 356 351 351 347 340 346 344 343 340 338 341 345 345 339 336
134 130 126 120 114 108 107 107 105 105 96 87 75 71 59 43 36 28 19 13 4 2 1 357 359 355 352 354 350 351 346 347 347 343 339 341 343 342 343 340 339 338
140 135 130 128 120 118 119 116 119 117 108 99 94 87 71 65 45 23 14 7 5 358 353 346 349 353 351 359 356 344 348 347 343 344 339 339 339 338 339 338 335 332
142 141 138 133 128 129 128 128 133 135 140 140 121 103 73 52 35 23 5 359 349 339 335 343 350 354 358 1 360 358 354 347 342 341 337 334 334 335 333 329 325 321
147 146 147 145 143 140 144 149 152 157 153 135 108 83 72 53 28 357 333 321 313 325 332 343 354 357 2 4 3 2 352 343 338 334 334 331 328 326 322 318 315 317
159 161 157 157 157 154 155 162 165 159 147 129 108 99 89 76 349 303 290 299 305 323 338 346 356 9 8 7 4 353 347 338 333 333 328 326 319 313 313 312 312 314
168 162 161 162 159 160 167 166 168 163 154 145 147 142 132 302 272 289 283 282 299 319 345 352 2 16 18 9 355 347 344 334 327 327 323 317 314 311 309 313 312 310
168 164 164 160 164 169 173 182 181 175 166 160 148 138 136 236 271 268 273 278 301 351 359 3 8 13 31 357 347 346 339 331 323 318 314 310 310 310 310 308 309 310
170 167 166 166 174 183 190 188 184 174 164 152 145 153 187 225 257 258 270 301 340 8 11 4 4 26 357 346 348 345 337 325 321 313 311 309 308 309 306 305 306 305
172 171 172 179 185 191 192 188 181 173 164 159 166 181 199 214 235 255 282 324 351 355 357 1 355 8 344 345 344 343 338 326 319 311 304 306 305 303 303 304 301 302
179 178 180 183 188 192 192 189 181 176 173 172 180 186 200 213 225 253 288 307 334 338 341 347 338 347 339 341 341 338 334 328 316 308 306 301 300 302 300 301 299 301
183 181 182 183 190 193 193 191 187 181 177 177 182 178 203 216 222 256 269 304 317 326 327 328 326 337 333 335 337 334 332 329 315 305 301 296 299 299 297 299 303 303
184 182 182 186 189 195 196 196 191 185 173 169 168 182 206 216 221 231 243 271 302 312 310 312 313 330 327 334 333 333 331 329 311 303 295 293 293 296 299 300 301 301
185 183 184 189 192 196 198 199 192 175 166 168 175 191 208 218 224 224 228 256 285 305 308 307 298 313 324 329 331 332 330 327 308 303 294 293 296 296 298 297 297 299
184 183 187 190 193 195 199 198 188 175 165 161 169 195 210 224 235 227 233 243 276 289 295 294 298 307 320 325 330 332 332 326 311 305 299 299 301 297 298 296 297 300
184 184 188 192 192 194 197 196 182 167 162 156 175 200 213 224 226 227 226 244 263 269 281 290 293 307 319 325 330 333 333 323 313 305 307 305 300 300 298 297 299 304
184 184 188 191 193 196 196 190 177 161 160 161 183 199 213 214 221 225 226 233 254 271 285 294 296 305 314 322 328 330 332 320 314 308 303 302 298 299 302 301 303 301
181 184 189 191 193 196 191 181 173 164 155 162 182 200 211 205 218 232 231 234 232 264 280 279 286 298 311 319 324 328 328 324 314 307 302 298 301 300 304 302 302 301
179 184 190 191 192 190 184 178 160 152 159 166 180 193 198 204 204 227 244 247 229 238 252 261 281 295 311 313 318 322 324 322 315 307 303 301 302 304 304 305 303 302